813  
ASUS42 KTAE 151816  
RWRTAE  
RWRTAE  
NORTH FLORIDA/SOUTH ALABAMA/SOUTHWEST GEORGIA WEATHER ROUNDUP  
NATIONAL WEATHER SERVICE TALLAHASSEE FLORIDA  
200 PM EDT MON JUL 15 2019  
 
NOTE: "FAIR" INDICATES FEW OR NO CLOUDS BELOW 12,000 FEET WITH NO  
SIGNIFICANT WEATHER AND/OR S TO VISIBILITY
.  
 
!FLZ017-115-028-034-025-151900   
..NORTH FLORIDA
 
 
 
CITY SKY/WX TMP DP RH WIND PRES REMARKS
 
TALL INTL ARPT FAIR 94 76 55 VRB3 30.12F HX 106  
FSU LOVE BLDG N/A 93 72 49 W7 N/A HX 100  
APALACHICOLA FAIR 90 77 65 SE10 30.13S HX 103  
PERRY FAIR 95 72 46 SE5 30.13S HX 103  
CROSS CITY FAIR 94 73 50 S3 30.11F HX 102  
JACKSONVILLE PTSUNNY 96 68 39 VRB6 30.09F HX 101  

 
 
!FLZ112-006-005-002-011-151900   
..FLORIDA PANHANDLE
 
 
 
CITY SKY/WX TMP DP RH WIND PRES REMARKS
 
MARIANNA FAIR 93 75 55 S5 30.11F HX 104  
BONIFAY FAIR 92 75 57 VRB6 30.12F HX 103  
PANAMA CITY NW FAIR 90 73 57 S10 30.12S HX 98  
TYNDALL AFB FAIR 89 77 67 S9 30.11F HX 101  
TYND DRONE APT N/A N/A N/A N/A S10 N/A  
DE FUNIAK SPR FAIR 89 73 59 S7 30.13S HX 97  
EGLIN AFB PTSUNNY 89 76 65 SW12 30.12F HX 100  
DESTIN FAIR 88 78 72 SE9 30.12F HX 101  
HURLBURT MOSUNNY 88 78 72 S9 30.11F HX 102  
CRESTVIEW FAIR 92 72 51 S9 30.13F HX 99  
PENSACOLA PTSUNNY 89 79 72 S13 30.11F HX 104  

 
 
!ALZ063-066-151900   
..SOUTH ALABAMA
 
 
 
CITY SKY/WX TMP DP RH WIND PRES REMARKS
 
DOTHAN FAIR 91 71 51 S7 30.16F HX 97  
OZARK CAIRNS FAIR 90 73 57 S9 30.12F HX 98  
FT RUCKER HELI PTSUNNY 92 74 56 S10 30.12F HX 101  
RUCKER HELI 3 PTSUNNY 88 73 60 MISG 30.12F HX 95  
RUCKER HELI 2 PTSUNNY 89 74 60 SW5 30.12F HX 98  
FLORALA APT FAIR 92 70 48 S13G22 30.13F HX 97  
ANDALUSIA PTSUNNY 92 72 51 W8 30.11F HX 99  
TROY FAIR 90 73 57 SW18G31 30.13F THUNDER HX 98  
EUFALA NOT AVBL  
MOBILE PTSUNNY 89 75 63 S17 30.11F HX 99  

 
 
!GAZ120>161-151900   
..SOUTHWEST AND SOUTH CENTRAL GEORGIA
 
 
 
CITY SKY/WX TMP DP RH WIND PRES REMARKS
 
THOMASVILLE FAIR 91 72 52 S3 30.14F HX 98  
BAINBRIDGE N/A 95 68 41 MISG 30.14S HX 99  
MOODY AFB FAIR 92 75 56 W6 30.12F HX 103  
VALDOSTA FAIR 95 72 47 CALM 30.13F HX 103  
MOULTRIE FAIR 91 68 46 SW3 30.14F HX 95  
BLAKELY FAIR 88 68 51 S3 30.14S HX 91  
ALBANY FAIR 94 71 47 W6 30.15S HX 101  
TIFTON FAIR N/A N/A N/A CALM 30.14  
FITZGERALD FAIR 97 67 37 W7 30.15F HX 101  
CORDELE FAIR 92 65 40 W9 30.15S HX 94  
AMERICUS FAIR 95 63 34 W13 30.16S HX 96  
HOMERVILLE PTSUNNY 91 68 46 NW6 30.12F HX 95  

 
 
!GMZ750-755-770-775-151900   
..COASTAL AND BUOY OBS
 
 
 
STATION/POSITION TIME TEMP WIND PRES VSBY WAVE
 
AIR SEA DIR/SP/G HT/PER  
(UTC) (F) (DEG/KT/KT) (MB) (MI) (FT/S)  
KEATON BEACH 1800 86 230/ 7/ 8 1020.1F  
CEDAR KEY 1800 87 250/ 4/ 6 1020.2F  
C TOWER 1800 85 110/ 5/ 6 1020.6S  
APALACHICOLA BUO 1800 84 130/ 6/ 6 1020.6  
PANAMA CITY BUOY 1750 85 85 120/ 8/ 8 1020.0S 3/ 7  
MOBILE BUOY 1800 84 83 150/ 10/ 14 1019.6  
ORANGE BCH AL BU 1800 85 85 170/ 10/ 14 1020.3  

 
 
 
CLICK HERE TO GO TO PREVIOUS BULLETINS.

The Nexlab FL Page
The Nexlab GA Page
The Nexlab AL Page Main Text Page